SCP
0 0 0 0 0 0 0 0 0 1 1 1 1 1 1 1 1 1 1 1 1 1 1 1 1 1 1 1 1 1 1 1 1 1 1 1 1 0 0 0 0 0 0
0 0 0 0 0 0 0 0 0 0 0 0 1 1 1 1 1 1 1 1 1 1 1 1 1 1 1 1 1 1 1 1 1 1 1 1 1 1 1 0 0 0 0
0 0 0 0 0 0 0 0 0 0 0 0 0 0 0 0 1 1 1 1 1 1 1 1 1 1 1 1 1 1 1 1 1 1 1 1 1 1 1 1 0 0 0
0 0 0 0 0 0 0 0 0 0 0 0 0 0 0 0 0 0 0 0 1 1 1 1 1 1 1 1 1 1 1 1 1 1 1 1 1 1 1 1 0 0 0
0 0 0 0 0 0 0 0 0 0 0 0 0 0 0 0 0 0 0 0 0 0 0 0 0 0 0 0 1 1 1 1 1 1 1 1 1 1 0 0 0 0 0
0 0 0 0 0 0 0 0 0 0 0 0 0 0 0 0 0 0 0 0 0 0 0 0 0 0 0 0 0 0 0 0 1 1 1 1 1 0 0 0 0 0 0
0 0 0 0 0 0 0 0 0 0 0 0 0 0 0 0 0 0 0 0 0 0 0 0 0 0 0 0 0 0 0 0 0 0 0 0 0 0 0 0 0 0 0
0 0 0 0 0 0 0 0 0 0 0 0 0 0 0 0 0 0 0 0 0 0 0 0 0 0 0 0 0 0 0 0 0 0 0 0 0 0 0 0 0 0 0
0 0 0 0 0 0 0 0 0 0 0 0 0 0 0 0 0 0 0 0 0 0 0 0 0 0 0 0 0 0 0 0 0 0 0 0 0 0 0 0 0 0 0
0 0 0 0 0 0 0 0 0 0 0 0 0 0 0 0 0 0 0 0 0 0 0 0 0 0 0 0 0 0 0 0 0 0 0 0 0 0 0 0 0 0 0
0 0 0 0 0 0 0 0 0 0 0 0 0 0 0 0 0 0 0 0 0 0 0 0 0 0 0 0 0 0 0 0 0 0 0 0 0 0 0 0 0 0 0
0 0 0 0 0 0 0 0 0 0 0 0 0 0 0 0 0 0 0 0 0 0 0 0 0 0 0 0 0 0 0 0 0 0 0 0 0 0 0 0 0 0 0
0 0 0 0 0 0 0 0 0 0 0 0 0 0 0 0 0 0 0 0 0 0 0 0 0 0 0 0 0 0 0 0 0 0 0 0 0 0 0 0 0 0 0
0 0 0 0 0 0 0 0 0 0 0 0 0 0 0 0 0 0 0 0 0 0 0 0 0 0 0 0 0 0 0 0 0 0 0 0 0 0 0 0 0 0 0
0 0 0 0 0 0 0 0 0 0 0 0 0 0 0 0 0 0 0 0 0 0 0 0 0 0 0 0 0 0 0 0 0 0 0 0 0 0 0 0 0 0 0
0 0 0 0 0 0 0 0 0 0 0 0 0 0 0 0 0 0 0 0 0 0 0 0 0 0 0 0 0 0 0 0 0 0 0 0 0 0 0 0 0 0 0
0 0 0 0 0 0 0 0 0 0 0 0 0 0 0 0 0 0 0 0 0 0 0 0 0 0 0 0 0 0 0 0 0 0 0 0 0 0 0 0 0 0 0
0 0 0 0 0 0 0 0 0 0 0 0 0 0 0 0 0 0 0 0 0 0 0 0 0 0 0 0 0 0 0 0 0 0 0 0 0 0 0 0 0 0 0
0 0 0 0 0 0 0 0 0 0 0 0 0 0 0 0 0 0 0 0 0 0 0 0 0 0 0 0 0 0 0 0 0 0 0 0 0 0 0 0 0 0 0
0 0 0 0 0 0 0 0 0 0 0 0 0 0 0 0 0 0 0 0 0 0 0 0 0 0 0 0 0 0 0 0 0 0 0 0 0 0 0 0 0 0 0
0 0 0 0 0 0 0 0 0 0 0 0 0 0 0 0 0 0 0 0 0 0 0 0 0 0 0 0 0 0 0 0 0 0 0 0 0 0 0 0 0 0 0
0 0 0 0 0 0 0 0 0 0 0 0 0 0 0 0 0 0 0 0 0 0 0 0 0 0 0 0 0 0 0 0 0 0 0 0 0 0 0 0 0 0 0
0 0 0 0 0 0 0 0 0 0 0 0 0 0 0 0 0 0 0 0 0 0 0 0 0 0 0 0 0 0 0 0 0 0 0 0 0 0 0 0 0 0 0
0 0 0 0 0 0 0 0 0 0 0 0 0 0 0 0 0 0 0 0 0 0 0 0 0 0 0 0 0 0 0 0 0 0 0 0 0 0 0 0 0 0 0
0 0 0 0 0 0 0 0 0 0 0 0 0 0 0 0 0 0 0 0 0 0 0 0 0 0 0 0 0 0 0 0 0 0 0 0 0 0 0 0 0 0 0
0 0 0 0 0 0 0 0 0 0 0 0 0 0 0 0 0 0 0 0 0 0 0 0 0 0 0 0 0 0 0 0 0 0 0 0 0 0 0 0 0 0 0
Wind_Speed
1 2 2 2 2 2 2 1 1 0 0 0 1 1 1 2 2 2 3 4 5 5 5 6 7 7 5 5 5 6 6 7 10 10 7 6 6 6 5 5 5 6 5
1 2 2 2 2 2 2 2 2 2 1 1 1 1 1 1 1 2 3 3 4 5 5 5 6 5 6 5 5 6 6 6 8 11 8 6 6 6 6 6 4 4 5
2 2 3 3 3 3 3 2 2 2 2 2 2 2 2 2 2 2 2 3 3 4 4 5 5 5 6 5 5 6 6 6 6 8 8 6 5 4 5 5 5 5 5
2 3 3 3 3 3 3 3 3 2 3 2 2 2 2 2 2 3 3 3 3 3 4 4 5 5 6 6 5 6 6 6 6 6 7 6 5 4 3 4 5 5 5
2 3 3 3 3 3 3 3 3 3 3 3 3 3 3 2 3 3 3 3 3 3 4 4 4 5 5 5 5 6 6 6 5 5 6 6 5 3 4 4 5 5 5
2 3 2 3 3 3 3 3 3 4 3 3 3 3 3 3 5 5 4 3 3 3 4 4 4 4 5 6 6 7 7 7 7 6 6 7 7 6 5 4 4 5 5
3 3 3 3 3 3 3 3 3 3 3 3 3 3 3 4 6 6 5 3 3 3 4 4 4 4 5 6 7 7 6 7 8 8 8 9 8 6 6 6 5 6 7
3 2 2 2 2 2 2 3 3 3 2 2 3 3 3 4 7 7 6 3 3 3 3 4 5 5 5 6 6 6 6 6 7 7 8 9 8 7 6 7 7 6 5
2 2 2 2 2 2 2 2 2 2 2 3 3 3 3 5 7 7 6 3 3 4 4 4 5 5 7 8 6 7 7 6 7 8 9 10 10 9 6 4 4 4 6
2 2 2 2 2 2 1 2 2 2 2 2 3 3 4 4 7 8 7 3 3 4 4 4 5 7 8 9 6 6 7 7 6 7 7 8 7 6 6 5 4 4 5
1 2 2 2 2 2 2 2 2 2 3 3 3 3 4 4 6 8 8 4 4 4 4 4 4 8 9 9 8 6 8 8 6 6 5 5 5 4 4 4 4 5 5
2 3 2 2 2 2 3 3 2 2 3 2 2 3 3 4 5 7 9 8 7 4 4 4 5 9 10 9 7 8 10 8 5 4 4 5 5 5 5 5 6 6 6
3 3 3 3 3 2 2 2 2 2 2 2 1 2 2 3 4 7 7 8 9 5 4 7 8 9 8 6 8 9 7 4 4 4 5 5 5 6 5 5 5 5 6
3 3 3 3 3 2 2 1 2 1 1 1 1 1 2 2 3 4 4 4 5 5 4 5 7 7 6 6 6 6 5 5 5 5 6 6 6 5 5 5 5 5 5
3 3 3 2 2 2 2 2 2 2 1 1 1 1 1 2 4 7 5 4 4 4 4 3 3 4 4 5 5 5 5 5 5 5 5 6 6 6 5 5 5 5 5
3 2 2 2 2 2 2 2 4 4 4 4 4 3 3 4 5 6 6 6 6 6 3 2 3 4 4 5 5 5 5 5 5 5 5 5 6 6 6 5 5 5 6
3 2 2 1 1 1 1 2 2 3 5 5 6 6 6 6 6 6 7 6 6 6 3 3 3 3 4 4 4 5 5 6 6 5 5 6 6 6 6 6 6 5 6
2 2 2 1 1 1 1 1 1 1 1 2 4 6 7 7 6 7 7 5 4 4 3 3 3 3 4 4 4 5 5 5 5 5 5 6 6 5 6 6 6 6 6
2 2 2 2 1 1 1 1 1 1 1 1 2 4 6 7 6 7 7 3 3 3 3 3 3 4 4 4 4 5 5 5 6 5 5 6 6 5 6 6 6 7 6
2 3 2 2 2 2 1 1 1 1 1 1 1 2 3 4 3 4 4 3 3 3 3 3 4 4 4 4 4 5 5 5 6 5 5 6 6 5 6 7 6 6 6
2 2 2 2 2 1 1 1 1 1 0 1 1 2 4 2 3 3 3 3 3 3 3 4 4 4 4 4 4 5 6 5 5 6 6 6 6 6 6 6 6 6 6
2 2 2 2 2 1 1 1 1 0 0 1 1 2 4 2 2 3 3 3 3 3 3 4 4 4 4 5 5 5 5 6 6 6 6 6 6 6 6 6 6 6 6
2 2 2 2 1 1 1 1 0 0 1 1 2 2 2 2 2 3 3 4 4 4 4 4 4 4 4 4 5 5 6 6 6 7 7 7 6 6 6 7 7 8 7
2 2 1 1 1 1 0 0 0 1 1 2 2 2 2 3 3 4 4 4 4 4 4 4 5 7 8 7 6 5 6 7 7 6 8 8 7 7 6 6 7 8 7
1 1 1 1 1 1 1 1 1 2 2 2 2 3 3 3 3 4 4 4 5 5 6 6 5 6 8 10 9 8 9 11 10 7 7 7 7 7 7 7 6 7 7
1 1 1 1 1 1 2 2 2 2 2 3 3 3 3 4 4 4 4 4 4 5 6 5 7 8 10 9 10 11 11 12 11 10 7 6 7 7 7 6 7 7 7
Wind_Direction
177 169 167 167 164 156 152 149 135 88 19 287 259 249 255 269 273 265 266 276 271 271 270 269 269 271 272 271 270 267 263 261 269 279 278 284 275 272 273 271 275 274 270
132 133 126 114 105 102 93 80 73 63 48 33 16 357 344 335 317 289 280 282 279 280 284 283 283 287 285 286 284 281 277 273 272 279 282 284 280 279 282 279 278 280 277
99 106 101 96 93 88 77 66 64 63 58 47 43 37 23 10 347 325 304 299 295 293 295 293 294 297 291 292 292 289 287 287 278 278 285 289 289 294 290 288 291 285 283
96 100 94 85 84 83 77 67 59 58 58 49 44 32 20 12 3 350 339 321 308 304 302 299 300 299 295 295 292 293 292 287 283 279 283 291 294 310 303 290 292 289 287
110 104 94 80 74 74 72 68 63 57 53 49 47 38 28 18 8 357 335 320 314 311 311 311 310 313 314 312 305 300 296 288 286 284 283 288 289 305 293 293 285 292 286
123 112 98 90 84 76 67 64 64 58 53 50 45 43 32 21 18 9 349 324 316 311 313 317 318 319 323 316 307 300 295 288 287 283 282 281 285 288 289 283 285 292 287
121 108 97 91 86 74 67 69 65 60 55 51 41 37 33 23 17 11 357 325 318 316 317 318 319 325 319 314 309 302 296 292 284 282 280 279 285 286 288 284 278 275 274
128 110 98 94 86 76 77 74 65 58 58 52 41 31 27 22 19 13 1 338 330 326 321 318 317 322 331 326 315 311 309 305 300 287 281 284 287 287 277 275 277 280 285
134 120 114 111 101 90 81 70 62 64 62 53 40 30 26 23 19 12 0 342 339 337 337 335 328 323 334 333 318 310 309 310 317 309 301 298 300 297 290 286 282 283 287
165 149 130 123 118 118 107 90 72 76 69 57 48 37 26 18 17 15 5 349 340 335 335 337 339 336 337 337 321 312 308 314 319 320 315 312 308 307 299 278 270 272 283
119 105 106 116 119 122 110 87 81 80 79 68 57 41 29 16 13 14 8 358 344 330 327 330 333 337 335 334 327 315 311 313 308 306 306 310 314 314 312 306 295 277 273
105 110 109 101 100 101 100 93 88 96 96 80 61 42 29 16 10 6 4 3 355 336 327 329 331 335 333 332 329 328 324 319 311 310 310 311 313 314 314 310 302 291 280
122 118 108 96 91 96 113 115 112 105 96 78 54 29 10 5 0 2 358 358 357 348 338 338 338 340 339 341 345 342 336 330 324 318 312 311 312 311 312 310 309 301 297
133 124 117 116 110 101 107 117 114 101 84 73 41 7 352 356 357 356 353 352 354 352 345 340 341 349 356 358 354 354 350 341 329 319 315 315 317 317 316 316 312 312 305
123 124 121 117 121 119 99 86 80 56 47 50 16 16 356 346 350 349 349 347 347 346 337 334 346 351 357 357 355 352 347 345 340 331 323 320 320 320 318 318 310 307 299
129 125 123 127 128 123 109 83 65 58 51 45 39 35 16 8 4 1 359 357 2 1 1 347 348 348 345 343 341 339 340 339 334 327 322 320 319 317 316 316 313 308 305
128 128 124 124 130 121 116 116 93 58 55 48 38 36 27 15 14 14 8 7 16 21 23 2 347 341 337 335 333 331 329 329 327 323 321 320 318 315 314 314 314 312 306
112 111 113 121 123 115 113 117 114 99 54 28 22 24 19 14 18 16 12 15 18 21 8 350 337 334 333 331 328 325 323 322 323 321 319 317 316 313 312 312 311 311 307
100 96 96 99 95 94 103 106 96 84 65 23 6 13 12 10 18 19 17 17 5 353 346 338 331 327 324 322 319 318 317 316 318 318 315 314 313 312 310 309 308 311 308
85 83 84 93 90 84 85 94 95 95 88 44 11 357 355 358 1 1 6 360 349 335 329 324 321 318 317 316 315 315 313 312 314 313 312 312 312 310 308 308 310 311 311
96 92 85 85 84 87 94 101 106 109 82 5 344 329 349 348 337 335 336 334 326 319 315 313 311 311 312 311 309 307 307 307 309 310 309 309 311 309 308 307 309 309 310
99 97 89 87 86 82 76 82 93 93 41 325 335 337 344 342 320 314 315 315 312 306 305 303 301 302 304 304 303 302 302 303 306 308 307 306 306 307 308 308 310 312 313
104 102 94 83 80 84 82 69 54 359 318 314 317 319 321 315 310 307 307 307 306 304 305 300 298 299 301 298 294 293 293 296 299 301 302 302 304 305 306 308 309 311 314
119 118 114 108 103 111 127 292 291 285 285 287 290 292 295 297 297 298 300 302 303 301 300 297 293 294 299 300 294 289 286 290 294 291 290 290 296 298 300 302 305 309 309
136 138 145 161 184 208 231 248 257 265 271 275 280 285 289 290 289 291 294 296 298 297 298 297 292 293 295 296 294 292 292 293 292 289 285 283 286 289 292 296 301 305 306
160 171 188 204 219 228 235 246 254 262 267 272 275 278 280 282 283 287 291 292 295 296 296 294 292 295 297 296 295 296 295 293 291 286 281 282 285 288 293 294 298 299 301